User: anonymous   Login
Location: Unspecified
(0.0000°N, 0.0000°E)
Time: 23:43:23
(UTC+00:00)
Language:

Injun/Solrad 3 - Orbit

View from above orbital plane
View from above orbital plane
View from above satellite
View from above satellite

Ground track
Ground track

The orbit data is extracted from the following two-line orbital elements,

1 00117U 61015B   17349.19328706 -.00000044  00000-0  25776-4 0  9992
2 00117  66.8130  14.0390 0083203 306.6735  52.6716 13.89818865862840
Epoch (UTC): 15 December 2017 04:38:20
Eccentricity: 0.0083203
inclination: 66.8130°
perigee height: 868 km
apogee height: 990 km
right ascension of ascending node: 14.0390°
argument of perigee: 306.6735°
revolutions per day: 13.89818865
mean anomaly at epoch: 52.6716°
orbit number at epoch: 86284

The dashed part of the orbit path shows where the satellite is in the earth's shadow,  

DLR